Richlands, VA

5:06 AM EDT on July 21, 2017 (GMT -0400)
Tazewell County

Weather History for KJFZ - May, 2013

Change the Weather History Date:

Monday, May 20, 2013

  Actual Average (KBLF) Record (KBLF)
Temperature  
Mean Temperature 66 °F -  
Max Temperature 73 °F 70 °F 87 °F (1996)
Min Temperature 59 °F 54 °F 32 °F (2002)
Cooling Degree Days 1    
Growing Degree Days 16 (Base 50)    
Moisture  
Dew Point 61 °F    
Average Humidity 94    
Maximum Humidity 100    
Minimum Humidity 74    
Precipitation  
Precipitation 0.86 in - - ()
Sea Level Pressure  
Sea Level Pressure 30.13 in    
Wind  
Wind Speed 3 mph (South)    
Max Wind Speed 8 mph    
Max Gust Speed 20 mph    
Visibility 7 miles    
Events Fog , Rain , Thunderstorm    
Averages and records for this station are not official NWS values.
T = Trace of Precipitation, MM = Missing Value Source: NWS Daily Summary

Daily Weather History Graph

Daily Weather History Graph

Search for Another Location

Airport or City:

Trip Planner

Search our weather history database for the weather conditions in past years. The results will help you decide how hot, cold, wet, or windy it might be!

Date:

Astronomy

May. 20, 2013 Rise Set
Actual Time 6:15 AM EDT 8:32 PM EDT
Civil Twilight 5:45 AM EDT 9:02 PM EDT
Nautical Twilight 5:09 AM EDT 9:38 PM EDT
Astronomical Twilight 4:29 AM EDT 10:18 PM EDT
Moon 3:45 PM EDT (5/20) 3:02 AM EDT (5/20)
Length of Visible Light 15h 16m
Length of Day
14h 17m
Waxing Gibbous, 75% of the Moon is Illuminated
May 20
Waxing Gibbous
May 25
Full
May 31
Last Quarter
Jun 8
New
Jun 16
First Quarter

Hourly Weather History & Observations

Time (EDT) Temp. Dew Point Humidity Pressure Visibility Wind Dir Wind Speed Gust Speed Precip Events Conditions
12:15 AM 61.2 °F 59.7 °F 95% 30.11 in 10.0 mi SSE 4.6 mph - N/A   Scattered Clouds
12:35 AM 60.6 °F 59.7 °F 97% 30.12 in 10.0 mi SSE 3.5 mph - N/A   Mostly Cloudy
12:55 AM 62.1 °F 59.9 °F 93% 30.12 in 10.0 mi South 3.5 mph - N/A   Overcast
1:15 AM 61.5 °F 60.1 °F 95% 30.12 in 10.0 mi SSE 5.8 mph - N/A   Overcast
1:35 AM 60.3 °F 59.9 °F 99% 30.12 in 7.0 mi SE 4.6 mph - N/A   Mostly Cloudy
1:55 AM 60.4 °F 59.9 °F 98% 30.11 in 10.0 mi SE 3.5 mph - N/A   Mostly Cloudy
2:15 AM 60.1 °F 59.7 °F 99% 30.11 in 7.0 mi SE 4.6 mph - N/A   Mostly Cloudy
2:35 AM 60.4 °F 59.4 °F 96% 30.10 in 10.0 mi SE 3.5 mph - N/A   Mostly Cloudy
2:55 AM 61.5 °F 59.0 °F 91% 30.09 in 10.0 mi SSE 3.5 mph - N/A   Scattered Clouds
3:15 AM 62.1 °F 59.0 °F 90% 30.09 in 10.0 mi Calm Calm - N/A   Clear
3:35 AM 59.7 °F 58.8 °F 97% 30.10 in 10.0 mi Calm Calm - N/A   Scattered Clouds
3:55 AM 59.5 °F 59.0 °F 98% 30.10 in 10.0 mi Calm Calm - N/A   Scattered Clouds
4:35 AM 59.4 °F 58.8 °F 98% 30.10 in 10.0 mi Calm Calm - N/A Thunderstorm Clear
4:55 AM 59.9 °F 59.2 °F 97% 30.10 in 10.0 mi SW 3.5 mph - N/A Thunderstorm Clear
5:15 AM 60.1 °F 58.8 °F 96% 30.10 in 10.0 mi West 3.5 mph - N/A Thunderstorm Scattered Clouds
5:35 AM 59.7 °F 59.0 °F 97% 30.10 in 10.0 mi Calm Calm - N/A   Clear
5:55 AM 59.9 °F 59.4 °F 98% 30.11 in 7.0 mi WSW 4.6 mph - N/A   Scattered Clouds
6:15 AM 59.2 °F 59.2 °F 100% 30.11 in 0.8 mi Calm Calm - N/A Thunderstorm Overcast
6:35 AM 59.7 °F 59.5 °F 99% 30.13 in 4.0 mi SW 3.5 mph - N/A Thunderstorm Overcast
6:55 AM 59.7 °F 59.5 °F 99% 30.13 in 1.5 mi West 3.5 mph - N/A Thunderstorm Overcast
7:15 AM 60.6 °F 60.1 °F 98% 30.14 in 5.0 mi Calm Calm - N/A Thunderstorm Overcast
7:35 AM 60.8 °F 59.9 °F 97% 30.14 in 7.0 mi Calm Calm - N/A Rain , Thunderstorm Light Thunderstorms and Rain
7:55 AM 59.9 °F 59.9 °F 100% 30.15 in 0.2 mi West 4.6 mph - N/A Fog , Thunderstorm Unknown
8:15 AM 60.3 °F 60.3 °F 100% 30.15 in 1.5 mi WSW 6.9 mph - 0.02 in Rain , Thunderstorm Thunderstorms and Rain
8:35 AM 60.1 °F 60.1 °F 100% 30.15 in 0.5 mi SSW 4.6 mph - 0.06 in Rain , Thunderstorm Heavy Thunderstorms and Rain
8:55 AM 59.9 °F 59.9 °F 100% 30.16 in 1.5 mi South 4.6 mph - 0.10 in Rain , Thunderstorm Rain
9:15 AM 59.7 °F 59.7 °F 100% 30.18 in 0.2 mi Calm Calm - 0.02 in Rain , Thunderstorm Heavy Thunderstorms and Rain
9:35 AM 59.9 °F 59.9 °F 100% 30.18 in 3.0 mi South 4.6 mph - 0.08 in Rain , Thunderstorm Rain
9:55 AM 59.9 °F 59.9 °F 100% 30.18 in 3.0 mi Calm Calm - 0.10 in Rain , Thunderstorm Rain
10:15 AM 59.9 °F 59.9 °F 100% 30.19 in 5.0 mi Calm Calm - 0.02 in Rain , Thunderstorm Thunderstorms and Rain
10:35 AM 59.7 °F 59.7 °F 100% 30.18 in 0.2 mi Calm Calm - 0.06 in Rain , Thunderstorm Thunderstorms and Rain
10:55 AM 60.4 °F 57.9 °F 91% 30.18 in 0.5 mi SSW 4.6 mph 19.6 mph 0.48 in Rain , Thunderstorm Heavy Thunderstorms and Rain
11:15 AM 59.7 °F 59.2 °F 98% 30.19 in 2.5 mi Calm Calm - 0.02 in Rain , Thunderstorm Rain
11:35 AM 59.9 °F 59.9 °F 100% 30.18 in 0.8 mi SSE 4.6 mph - 0.04 in Rain , Thunderstorm Thunderstorms and Rain
11:55 AM 59.7 °F 59.7 °F 100% 30.19 in 1.8 mi Calm Calm - 0.06 in Rain Light Rain
12:15 PM 60.8 °F 60.1 °F 97% 30.19 in 7.0 mi Calm Calm - 0.01 in Rain Light Rain
12:35 PM 61.7 °F 60.1 °F 94% 30.18 in 7.0 mi SW 4.6 mph - 0.02 in Rain , Thunderstorm Rain
12:55 PM 61.3 °F 60.8 °F 98% 30.18 in 4.0 mi Calm Calm - 0.06 in Rain Rain
1:15 PM 61.5 °F 61.0 °F 98% 30.18 in 0.8 mi Calm Calm - 0.04 in Rain Rain
1:35 PM 61.2 °F 61.2 °F 100% 30.19 in 0.2 mi NNE 5.8 mph - 0.06 in Rain Light Rain
1:55 PM 61.7 °F 61.3 °F 99% 30.19 in 5.0 mi East 3.5 mph - 0.06 in Rain Light Rain
2:15 PM 63.0 °F 62.2 °F 97% 30.18 in 7.0 mi Calm Calm - N/A   Mostly Cloudy
2:55 PM 64.0 °F 62.8 °F 96% 30.14 in 7.0 mi Calm Calm - N/A   Scattered Clouds
3:35 PM 65.5 °F 64.2 °F 96% 30.13 in 7.0 mi Calm Calm - N/A   Scattered Clouds
3:55 PM 65.7 °F 64.8 °F 97% 30.13 in 5.0 mi Calm Calm - N/A   Scattered Clouds
4:15 PM 67.3 °F 65.5 °F 94% 30.12 in 10.0 mi Calm Calm - N/A   Clear
4:35 PM 69.6 °F 66.7 °F 91% 30.11 in 10.0 mi WSW 4.6 mph - N/A   Clear
5:15 PM 72.9 °F 67.1 °F 82% 30.10 in 10.0 mi Calm Calm - N/A   Clear
5:35 PM 73.6 °F 64.9 °F 74% 30.11 in 7.0 mi WSW 6.9 mph - N/A   Mostly Cloudy
5:55 PM 71.6 °F 64.2 °F 77% 30.12 in 1.0 mi West 8.1 mph - N/A   Haze
6:15 PM 71.1 °F 65.3 °F 82% 30.12 in 10.0 mi Calm Calm - N/A   Overcast
6:35 PM 70.7 °F 64.8 °F 81% 30.11 in 10.0 mi SSW 3.5 mph - N/A   Mostly Cloudy
6:55 PM 71.6 °F 64.8 °F 79% 30.10 in 10.0 mi South 3.5 mph - N/A   Scattered Clouds
7:15 PM 71.1 °F 64.6 °F 80% 30.10 in 10.0 mi SW 4.6 mph - N/A   Clear
7:55 PM 69.3 °F 64.4 °F 84% 30.10 in 10.0 mi Calm Calm - N/A   Clear
8:15 PM 68.9 °F 63.7 °F 83% 30.11 in 10.0 mi Calm Calm - N/A   Clear
8:35 PM 66.4 °F 64.6 °F 94% 30.10 in 7.0 mi SE 3.5 mph - N/A   Clear
8:55 PM 66.4 °F 64.8 °F 95% 30.10 in 10.0 mi SSE 3.5 mph - N/A   Clear
9:15 PM 67.3 °F 64.0 °F 89% 30.10 in 10.0 mi South 4.6 mph - N/A   Clear
9:35 PM 66.0 °F 64.0 °F 93% 30.11 in 10.0 mi South 5.8 mph - N/A   Clear
9:55 PM 66.9 °F 63.5 °F 89% 30.11 in 10.0 mi SSE 3.5 mph - N/A   Clear
10:15 PM 65.5 °F 63.3 °F 93% 30.11 in 10.0 mi Calm Calm - N/A   Clear
10:35 PM 65.5 °F 63.7 °F 94% 30.11 in 10.0 mi Calm Calm - N/A   Clear
10:55 PM 66.4 °F 63.0 °F 89% 30.11 in 10.0 mi SE 4.6 mph - N/A   Clear
11:15 PM 64.6 °F 63.0 °F 94% 30.10 in 10.0 mi ESE 3.5 mph - N/A   Clear
11:35 PM 65.5 °F 62.8 °F 91% 30.09 in 10.0 mi SE 3.5 mph - N/A   Clear
11:55 PM 66.6 °F 60.8 °F 82% 30.08 in 10.0 mi South 3.5 mph - N/A   Clear